Погода в Лебяжьем

Россия / Красноярский край     54°11′34″N   91°34′34″E
темп.,
°C
ветер,
м/с
пор.,
м/с
влажн.,
%
обл.,
%
осадки,
мм/ч
давл.,
гПа
погр.,
м
28 февраля, вс
вс2801:00−22ююв1178100 0.0 103920
04:00−22юв1179100 0.0 103920
07:00−22юв1280100 0.0 104020
10:00−20юв2279100 0.0 1039145
13:00−17ююв347396 0.0 1037489
16:00−16ююв237916 0.0 1035223
19:00−20в228929 0.0 103520
22:00−20в1289100 0.0 103320
1 марта, пн
пн101:00−18в1291100 0.0 103122
04:00−18в1296100 0.1 102838
07:00−17в2295100 0.3 102559
10:00−15вюв2486100 0.1 1022285
13:00−13юв3592100 0.9 1018366
16:00−10юв3491100 0.7 1015381
19:00−10юв1295100 1.2 101428
22:00−9юв2295100 0.4 101254
2 марта, вт
вт201:00−9ююв2294100 0.4 101034
04:00−8ююв2292100 0.0 100839
07:00−7ю2389100 0.0 100827
10:00−4ююз3482100 0.0 100995
13:000юз487796 0.0 1011938
16:000зсз51074100 0.1 1012839
19:00−6сз3389100 0.2 101422
22:00−10сз2391100 0.0 101522
3 марта, ср
ср301:00−11сз2296100 0.1 101521
04:00−12сз2296100 0.1 101521
07:00−12сз2296100 0.5 101623
10:00−11сз2294100 0.1 1016136
13:00−9сз219098 0.1 1016253
16:00−8сз1189100 0.0 1016191
19:00−10сз1194100 0.0 101821
22:00−11зюз1194100 0.0 102021
4 марта, чт
чт401:00−11зюз0197100 0.2 102221
04:00−12з1195100 0.7 102421
07:00−14зюз128795 0.7 102720
10:00−13зсз008639 0.0 102835
13:00−8вюв127919 0.0 1027293
16:00−7юв24822 0.0 1026271
19:00−10вюв238436 0.0 102621
22:00−13в228948 0.0 102621